SL-16 DEB, 23282

Orbit data source: Space-Track

SL-16 DEB, 23282 is space debris in LEO originally from a launch on Fri, 25 Dec 1992 UTC launched from the Tyuratam Missile And Space Complex (TTMTR). Debris objects in space refer to the collection of defunct objects orbiting the Earth. Examples of debris include non-operational satellites, rocket bodies, and fragments generated from explosions, collisions, or faulty payload assembly.

Loading next visibility...
Identifier
23282, 1992-093JG
Orbit
LEO
Country
Flag of CISCIS
Related business
Manufacturer
Unknown
Mission
Spacecraft
Bus & Motor
Unknown
Mass
Unknown
Launch date (UTC)
1992-12-25 (33 years ago)
Launch vehicle
Unknown
Launch site
Tyuratam Missile And Space Complex (TTMTR)
Object type
Payload
Rocket body
Debris
Shape & HBR
Unknown shape, 0.1 m
Radar Cross Section
Small (<0.1 m²)

Expand to show TLE details & history
Last TLE update: 19 hours ago

TLE from 19 hours ago
0 SL-16 DEB
1 23282U 92093JG  25296.96208238  .00023902  00000-0  49675-2 0  9991
2 23282  71.1726 266.9722 0053126 337.5552  82.4987 14.59136371639976
Epoch: 2025-10-23T23:05Z
TLE epoch observation values (Epoch: 2025-10-23T23:05:23.917Z)
Latitude
55.70913°
Longitude
-82.16885°
Altitude
699.994 km
Speed
7.514 km/s
True Right ascension
19h 47m 10s
True Declination
55° 32' 51"
Sunlit
Object was in daylight at epoch
Visualization orbit readout
Latitude
Unknown
Longitude
Unknown
Altitude
Unknown
Speed
Unknown
Apparent Right ascension
Unknown
Apparent Declination
Unknown
Sunlit
N/A
Visualization observer readout
Local Sidereal Time
12:58:36
Azimuth
Unknown
Elevation
Unknown
Doppler factor
Unknown
Orbital elements
Apogee altitude
731.399 km
Perigee altitude
656.258 km
Semi-major axis
7,071.965 km
Eccentricity
0.00531
Inclination
71.1726°
RAAN
266.9722°
Arg. of periapsis
337.5552°
True anomaly
83.10278°
Mean anomaly
82.4987°
Eccentric anomaly
82.80069°
Mean motion
3.6495 °/min
Orbital period
98.64 mins
BSTAR
0.0049675
Loading maneuver chart data...
Computing Atmospheric mass density...

Documentation

Showing up to 5 results
|